[[{"header":{"parameterUnit":"m.s-1","parameterCategory":2,"la1":30.2991,"la2":30.254,"lo1":-89.0895,"lo2":-89.0444,"dy":0.0017,"dx":0.0017,"nx":28,"ny":28,"refTime":"2023-11-01T03:00:00:Z","depth":"0","parameterNumber":2,"parameterNumberName":"U-component_of_CURRENTS"},"data":[0,0,0,0,0,0,0,0,0,0,0,0,0,0,0,0,0,0,0,0,0,0,0,0,0,0,0,0,0,0,0,0,0,0,0,0,0,0,0,0,0,0,0,0,0,0,0,0,0,0,0,0,0,0,0,0,0,0,-0.291,-0.291,0,-0.2931,-0.2931,-0.2931,-0.29,-0.2899,-0.2899,-0.2898,-0.2887,-0.2887,-0.2888,0,0,0,0,0,0,0,0,0,0,0,0,0,-0.2822,-0.2824,-0.291,-0.291,-0.2911,-0.2931,-0.2931,-0.2931,-0.29,-0.2899,-0.2898,-0.2898,-0.2887,-0.2887,-0.2888,0,0,0,0,0,0,0,0,0,0,0,0,0,-0.285,-0.2824,-0.291,-0.2901,-0.29,-0.2931,-0.2931,-0.2931,-0.2901,-0.2899,-0.2898,-0.2897,-0.2887,-0.2887,-0.2888,-0.2915,0,0,-0.289,-0.289,0,0,0,0,0,0,0,0,-0.2849,-0.2853,-0.2901,-0.2901,-0.2901,-0.2915,-0.2896,-0.2925,-0.2901,-0.2897,-0.2898,-0.2897,-0.2896,-0.2896,-0.2898,-0.2915,-0.2914,-0.289,-0.289,-0.2891,-0.2891,0,0,0,0,0,0,0,-0.2847,-0.2852,-0.2915,-0.2902,-0.2902,-0.2889,-0.2891,-0.2901,-0.29,-0.2897,-0.2896,-0.2904,-0.2895,-0.2898,-0.2898,-0.2914,-0.289,-0.2891,-0.2891,-0.2891,-0.2948,-0.2949,0,0,0,0,0,0,-0.2854,-0.2851,-0.2914,-0.2916,-0.2875,-0.2892,-0.2894,-0.2909,-0.29,-0.2899,-0.2905,-0.2903,-0.2897,-0.2897,-0.2897,-0.2931,-0.2891,-0.2891,-0.2892,-0.2947,-0.2948,-0.2949,0,0,0,0,0,0,-0.2852,-0.286,-0.2913,-0.2886,-0.2892,-0.2895,-0.2911,-0.291,-0.2914,-0.2907,-0.2904,-0.2911,-0.2896,-0.2896,-0.2909,-0.293,-0.2892,-0.2892,-0.2945,-0.2947,-0.2949,-0.2996,0,0,0,0,0,0,-0.285,-0.2859,-0.2867,-0.2887,-0.2894,-0.2941,-0.2913,-0.2911,-0.2923,-0.2919,-0.2912,-0.2909,-0.2895,-0.2908,-0.291,-0.293,-0.2893,-0.2944,-0.2946,-0.2948,-0.2993,-0.2999,-0.3005,0,0,0,0,0,-0.2846,-0.2867,-0.2867,-0.2875,-0.2907,-0.2942,-0.2945,-0.294,-0.2924,-0.2936,-0.2925,-0.2909,-0.2922,-0.291,-0.2911,-0.2932,-0.2943,-0.2946,-0.2948,-0.2991,-0.2998,-0.3004,0,0,0,0,0,0,-0.2831,-0.2867,-0.2867,-0.2896,-0.2921,-0.2938,-0.2945,-0.2948,-0.295,-0.2939,-0.2926,-0.2924,-0.2943,-0.2934,-0.2921,-0.2955,-0.293,-0.2933,-0.2962,-0.2969,-0.2975,-0.2985,-0.2893,0,0,0,0,0,-0.2834,-0.2855,-0.289,-0.291,-0.2924,-0.2936,-0.2947,-0.2949,-0.2958,-0.2956,-0.2953,-0.2948,-0.2957,-0.2959,-0.2963,-0.2985,-0.2979,-0.2999,-0.3004,-0.3009,-0.3019,-0.3019,-0.3026,-0.2957,-0.2957,-0.2957,0,0,-0.2831,-0.2854,-0.2864,-0.2907,-0.2919,-0.2955,-0.2938,-0.2961,-0.2988,-0.2956,-0.2978,-0.297,-0.2968,-0.2988,-0.2996,-0.2982,-0.3029,-0.3012,-0.3016,-0.3024,-0.3023,-0.3029,-0.3035,-0.2959,-0.2959,-0.2959,0,0,-0.2841,-0.2859,-0.2882,-0.2913,-0.2946,-0.2962,-0.2975,-0.3,-0.3005,-0.3031,-0.3014,-0.302,-0.3031,-0.3034,-0.3037,-0.3081,-0.306,-0.3079,-0.3115,-0.3115,-0.3121,-0.3126,-0.3138,-0.3143,-0.308,-0.308,-0.308,0,-0.2834,-0.2873,-0.2894,-0.2933,-0.2958,-0.2971,-0.3008,-0.3028,-0.3053,-0.3062,-0.3042,-0.3061,-0.3057,-0.3087,-0.3099,-0.3094,-0.3091,-0.3088,-0.3122,-0.3127,-0.3131,-0.3142,-0.3147,-0.3083,-0.3082,-0.3082,-0.3082,0,-0.2868,-0.2903,-0.2921,-0.2974,-0.3008,-0.3039,-0.308,-0.3103,-0.3105,-0.3119,-0.3142,-0.3133,-0.3139,-0.3144,-0.3135,-0.3167,-0.3155,-0.313,-0.3103,-0.314,-0.315,-0.3155,-0.3086,-0.3086,-0.3085,-0.3084,0,0,-0.2834,-0.2926,-0.293,-0.2963,-0.3031,-0.306,-0.3114,-0.3162,-0.3192,-0.3199,-0.3234,-0.324,-0.322,-0.3223,-0.321,-0.3216,-0.3244,-0.3187,-0.3186,-0.3198,-0.3253,-0.3245,-0.3249,-0.3217,-0.3218,-0.3219,-0.3252,0,-0.2847,-0.2921,-0.2968,-0.3033,-0.3074,-0.3119,-0.3173,-0.3218,-0.3242,-0.3281,-0.3274,-0.3294,-0.3256,-0.3255,-0.3256,-0.3252,-0.3257,-0.3238,-0.3218,-0.3218,-0.3203,-0.3254,-0.3182,-0.3206,-0.3257,-0.3257,-0.3258,0,-0.2854,-0.2908,-0.2974,-0.3068,-0.3089,-0.3132,-0.3207,-0.3256,-0.332,-0.3338,-0.3351,-0.3351,-0.337,-0.3325,-0.3325,-0.3312,-0.3289,-0.3278,-0.3278,-0.3257,-0.3218,-0.3175,-0.3212,-0.3177,-0.3265,-0.3264,-0.3264,0,-0.2801,-0.2904,-0.2951,-0.2985,-0.3098,-0.313,-0.3181,-0.3258,-0.3296,-0.3364,-0.3393,-0.341,-0.3414,-0.3394,-0.337,-0.3346,-0.3374,-0.3333,-0.3306,-0.3305,-0.3235,-0.3227,-0.3233,-0.3331,-0.3331,-0.3331,-0.3331,0,-0.279,-0.2826,-0.2929,-0.2957,-0.3011,-0.3101,-0.3157,-0.3215,-0.3301,-0.3353,-0.3398,-0.3435,-0.3428,-0.3442,-0.3407,-0.3383,-0.3395,-0.3332,-0.3317,-0.3252,-0.3245,-0.3203,-0.3201,-0.3332,-0.3332,-0.3331,-0.3331,0,-0.2719,-0.279,-0.2846,-0.2957,-0.2984,-0.3015,-0.3119,-0.317,-0.326,-0.3333,-0.3354,-0.3446,-0.3481,-0.3483,-0.3474,-0.3426,-0.336,-0.3389,-0.3326,-0.3304,-0.3237,-0.324,-0.3214,-0.3123,-0.3369,-0.3369,-0.3369,0,-0.2689,-0.2708,-0.2807,-0.2831,-0.2875,-0.2938,-0.2989,-0.3111,-0.3175,-0.3333,-0.3368,-0.345,-0.3507,-0.3521,-0.3474,-0.3444,-0.3368,-0.3336,-0.3275,-0.3246,-0.3239,-0.3201,-0.3121,-0.3205,-0.3204,-0.3203,-0.3202,0,-0.261,-0.2637,-0.2675,-0.2731,-0.2779,-0.2837,-0.2925,-0.2971,-0.3132,-0.3224,-0.3349,-0.3417,-0.3497,-0.3473,-0.3454,-0.3395,-0.3264,-0.3313,-0.3287,-0.313,-0.3082,-0.2982,-0.3184,-0.3192,-0.3193,-0.3194,-0.3194,-0.3195,-0.2516,-0.2518,-0.2559,-0.2599,-0.2654,-0.2699,-0.2705,-0.2848,-0.2933,-0.3074,-0.324,-0.3372,-0.3422,-0.3406,-0.336,-0.3243,-0.3217,-0.3131,-0.3145,-0.3115,-0.3004,-0.3205,-0.3192,-0.3193,-0.3194,-0.3194,-0.3195,0,-0.2392,-0.2402,-0.2431,-0.2464,-0.2465,-0.2544,-0.2629,-0.2633,-0.2706,-0.2947,-0.3072,-0.3293,-0.3273,-0.3309,-0.3245,-0.3116,-0.2983,-0.3005,-0.2921,-0.2848,-0.303,-0.2999,-0.2937,-0.2937,-0.2937,-0.2937,-0.2937,-0.2937,-0.2321,-0.229,-0.2308,-0.2248,-0.2272,-0.2222,-0.2233,-0.2289,-0.2423,-0.2637,-0.289,-0.3145,-0.3201,-0.3382,-0.3222,-0.3055,-0.2904,-0.2823,-0.2784,-0.2922,-0.2934,-0.2945,-0.2914,-0.2835,-0.2835,-0.2508,-0.2506,-0.2505]},{"header":{"parameterUnit":"m.s-1","parameterCategory":2,"la1":30.2991,"la2":30.254,"lo1":-89.0895,"lo2":-89.0444,"dy":0.0017,"dx":0.0017,"nx":28,"ny":28,"refTime":"2023-11-01T03:00:00:Z","depth":"0","parameterNumber":3,"parameterNumberName":"V-component_of_CURRENTS"},"data":[0,0,0,0,0,0,0,0,0,0,0,0,0,0,0,0,0,0,0,0,0,0,0,0,0,0,0,0,0,0,0,0,0,0,0,0,0,0,0,0,0,0,0,0,0,0,0,0,0,0,0,0,0,0,0,0,0,0,-0.0387,-0.0386,0,-0.0287,-0.0286,-0.0285,-0.0221,-0.0221,-0.022,-0.022,-0.0078,-0.0075,-0.0072,0,0,0,0,0,0,0,0,0,0,0,0,0,-0.0468,-0.0467,-0.0387,-0.0386,-0.0385,-0.0287,-0.0286,-0.0284,-0.0221,-0.0221,-0.022,-0.022,-0.008,-0.0076,-0.0071,0,0,0,0,0,0,0,0,0,0,0,0,0,-0.0407,-0.0467,-0.0388,-0.0342,-0.0337,-0.0287,-0.0286,-0.0284,-0.0221,-0.0221,-0.022,-0.022,-0.0081,-0.0076,-0.0071,-0.0049,0,0,-0.0055,-0.0053,0,0,0,0,0,0,0,0,-0.041,-0.0404,-0.035,-0.0345,-0.0339,-0.0266,-0.0262,-0.0203,-0.0221,-0.0265,-0.022,-0.022,-0.0138,-0.0128,-0.0111,-0.0043,-0.0037,-0.0055,-0.0051,-0.0049,-0.0048,0,0,0,0,0,0,0,-0.0415,-0.0407,-0.0347,-0.0348,-0.0342,-0.0307,-0.0298,-0.025,-0.0205,-0.0261,-0.0256,-0.0246,-0.0135,-0.0116,-0.0107,-0.0035,-0.0055,-0.005,-0.0047,-0.0045,0.0067,0.0066,0,0,0,0,0,0,-0.0431,-0.0412,-0.0351,-0.0344,-0.0374,-0.0306,-0.0296,-0.029,-0.0206,-0.0193,-0.0246,-0.0243,-0.0125,-0.0113,-0.0101,-0.0069,-0.0049,-0.0044,-0.0041,0.0067,0.0066,0.0066,0,0,0,0,0,0,-0.0433,-0.0427,-0.0355,-0.0376,-0.0364,-0.0306,-0.0299,-0.0288,-0.0269,-0.0195,-0.0181,-0.0237,-0.0124,-0.0109,-0.0061,-0.0063,-0.0042,-0.0037,0.0067,0.0067,0.0066,-0.0004,0,0,0,0,0,0,-0.0436,-0.0428,-0.0431,-0.0377,-0.0363,-0.0331,-0.0299,-0.0287,-0.0263,-0.0258,-0.0183,-0.0169,-0.0122,-0.007,-0.0056,-0.0055,-0.0033,0.0067,0.0067,0.0066,-0.0002,-0.0007,-0.0011,0,0,0,0,0,-0.0439,-0.0447,-0.0432,-0.0425,-0.0369,-0.0332,-0.0322,-0.0278,-0.0263,-0.0258,-0.0208,-0.0172,-0.0062,-0.0066,-0.005,-0.0047,0.0067,0.0067,0.0066,0.0,-0.0006,-0.0011,0,0,0,0,0,0,-0.0482,-0.044,-0.0423,-0.0417,-0.038,-0.0321,-0.0314,-0.0284,-0.0241,-0.0238,-0.017,-0.0153,-0.0113,-0.0072,-0.0078,-0.0017,0.0007,0.001,-0.0048,-0.0053,-0.0058,-0.0071,-0.0029,0,0,0,0,0,-0.0495,-0.0492,-0.0441,-0.0438,-0.0424,-0.0372,-0.0352,-0.0323,-0.0277,-0.0257,-0.0203,-0.0149,-0.0103,-0.0073,-0.0026,0.001,0.0054,0.0021,0.0016,0.0011,0.0011,0.0072,0.0073,0.0065,0.0065,0.0065,0,0,-0.0512,-0.0488,-0.0486,-0.0448,-0.0418,-0.0405,-0.0359,-0.0336,-0.0321,-0.0249,-0.0214,-0.0165,-0.0098,-0.006,-0.0038,-0.0024,0.0036,0.0011,0.0007,0.001,0.0072,0.0073,0.0074,0.0065,0.0065,0.0065,0,0,-0.0549,-0.0523,-0.0535,-0.0508,-0.047,-0.0434,-0.0432,-0.0376,-0.0347,-0.0309,-0.0255,-0.0207,-0.0135,-0.0085,-0.0051,-0.0053,0.0006,-0.0042,-0.0069,-0.001,-0.0009,-0.0007,0.0045,0.0051,-0.004,-0.004,-0.004,0,-0.0572,-0.0579,-0.0532,-0.0533,-0.0518,-0.0454,-0.046,-0.0419,-0.0354,-0.0328,-0.0309,-0.0199,-0.0146,-0.0088,-0.0091,-0.0063,-0.0024,-0.0054,-0.0017,-0.0014,-0.0011,0.0042,0.005,-0.0043,-0.0043,-0.0043,-0.0042,0,-0.0614,-0.0618,-0.0622,-0.0604,-0.0578,-0.0573,-0.0512,-0.0483,-0.0442,-0.0393,-0.033,-0.0253,-0.0185,-0.0163,-0.0126,-0.0079,-0.0056,-0.0035,-0.0006,-0.0015,0.0042,0.0052,-0.0048,-0.0047,-0.0046,-0.0045,0,0,-0.067,-0.0658,-0.066,-0.0672,-0.0617,-0.0607,-0.0573,-0.0525,-0.0507,-0.043,-0.0394,-0.0308,-0.0258,-0.0217,-0.0157,-0.0104,-0.0053,-0.0068,-0.0063,-0.0022,0.0074,0.0134,0.0152,-0.0026,-0.0024,-0.0023,0.0103,0,-0.0721,-0.0758,-0.0723,-0.0748,-0.0762,-0.069,-0.0665,-0.0607,-0.0545,-0.0491,-0.0391,-0.0338,-0.0279,-0.0251,-0.0185,-0.0082,-0.0029,-0.0089,0.0082,0.0088,0.0138,0.0165,0.0224,0.0346,0.0113,0.0115,0.0116,0,-0.0774,-0.0794,-0.0834,-0.0832,-0.0829,-0.0822,-0.0773,-0.0742,-0.0637,-0.0588,-0.0499,-0.0415,-0.031,-0.0273,-0.009,-0.0131,-0.0041,0.0038,0.0045,0.0135,0.0168,0.032,0.0373,0.0566,0.0133,0.0131,0.013,0,-0.085,-0.0871,-0.0913,-0.0909,-0.0887,-0.0883,-0.086,-0.0773,-0.0749,-0.0644,-0.0613,-0.0466,-0.0394,-0.0253,-0.0073,-0.0084,0.0125,0.0131,0.0272,0.0277,0.038,0.0392,0.0638,0.0244,0.0243,0.0243,0.0242,0,-0.0921,-0.0954,-0.0956,-0.0979,-0.1024,-0.0964,-0.0974,-0.0926,-0.0845,-0.0818,-0.0673,-0.0617,-0.0387,-0.0232,-0.0083,0.0144,0.0126,0.028,0.0321,0.0357,0.0364,0.0578,0.0665,0.0248,0.0247,0.0246,0.0245,0,-0.0998,-0.0998,-0.1052,-0.1056,-0.1065,-0.1092,-0.1071,-0.107,-0.0978,-0.0936,-0.0907,-0.0716,-0.0498,-0.026,-0.0011,0.0135,0.0471,0.0407,0.0435,0.0477,0.0781,0.086,0.1154,0.1255,0.0587,0.0589,0.0591,0,-0.1044,-0.1079,-0.1129,-0.1172,-0.1181,-0.1207,-0.1226,-0.1154,-0.1143,-0.0999,-0.099,-0.0763,-0.0595,-0.0182,0.0132,0.0443,0.0584,0.0658,0.0649,0.0828,0.0946,0.0997,0.1063,0.0756,0.0759,0.0762,0.0764,0,-0.1127,-0.1139,-0.1187,-0.1285,-0.133,-0.1377,-0.1389,-0.14,-0.1298,-0.1243,-0.1121,-0.0968,-0.0514,-0.0108,0.033,0.0516,0.0832,0.072,0.0912,0.1114,0.1182,0.1287,0.0633,0.0787,0.0785,0.0783,0.0782,0.0781,-0.1182,-0.1244,-0.131,-0.14,-0.1462,-0.1528,-0.1571,-0.1559,-0.1545,-0.1436,-0.1244,-0.0996,-0.0318,0.0322,0.0555,0.1091,0.1027,0.1223,0.1307,0.1343,0.1447,0.0839,0.1032,0.1031,0.103,0.103,0.1029,0,-0.1252,-0.1322,-0.1421,-0.1525,-0.1614,-0.1614,-0.1669,-0.1697,-0.17,-0.1516,-0.1352,-0.0656,-0.0009,0.061,0.1411,0.1669,0.1712,0.1789,0.1885,0.1923,0.1404,0.1417,0.1694,0.1694,0.1694,0.1694,0.1694,0.1693,-0.1292,-0.1405,-0.1466,-0.1634,-0.1704,-0.181,-0.1846,-0.1867,-0.1767,-0.1492,-0.1118,-0.0798,0.0195,0.154,0.2237,0.2264,0.2463,0.244,0.2531,0.2184,0.2137,0.2092,0.2127,0.2548,0.2549,0.3022,0.3027,0.303]}],[{"header":{"parameterUnit":"m.s-1","parameterCategory":2,"la1":30.2991,"la2":30.254,"lo1":-89.0895,"lo2":-89.0444,"dy":0.0017,"dx":0.0017,"nx":28,"ny":28,"refTime":"2023-11-01T03:00:00:Z","depth":"2","parameterNumber":2,"parameterNumberName":"U-component_of_CURRENTS"},"data":[0,0,0,0,0,0,0,0,0,0,0,0,0,0,0,0,0,0,0,0,0,0,0,0,0,0,0,0,0,0,0,0,0,0,0,0,0,0,0,0,0,0,0,0,0,0,0,0,0,0,0,0,0,0,0,0,0,0,-0.2825,-0.2826,0,-0.2845,-0.2845,-0.2845,-0.2817,-0.2816,-0.2816,-0.2815,-0.2806,-0.2806,-0.2807,0,0,0,0,0,0,0,0,0,0,0,0,0,-0.2742,-0.2743,-0.2825,-0.2826,-0.2826,-0.2845,-0.2845,-0.2845,-0.2817,-0.2816,-0.2815,-0.2815,-0.2806,-0.2806,-0.2807,0,0,0,0,0,0,0,0,0,0,0,0,0,-0.2768,-0.2744,-0.2825,-0.2817,-0.2817,-0.2845,-0.2845,-0.2845,-0.2817,-0.2816,-0.2815,-0.2814,-0.2806,-0.2806,-0.2807,-0.2831,0,0,-0.2809,-0.2809,0,0,0,0,0,0,0,0,-0.2767,-0.2771,-0.2818,-0.2818,-0.2817,-0.283,-0.2813,-0.284,-0.2818,-0.2814,-0.2815,-0.2814,-0.2814,-0.2814,-0.2816,-0.2831,-0.2831,-0.2809,-0.2809,-0.2809,-0.2809,0,0,0,0,0,0,0,-0.2765,-0.277,-0.283,-0.2818,-0.2818,-0.2806,-0.2808,-0.2817,-0.2816,-0.2814,-0.2813,-0.2821,-0.2813,-0.2815,-0.2815,-0.2831,-0.2809,-0.2809,-0.281,-0.281,-0.2866,-0.2867,0,0,0,0,0,0,-0.2772,-0.2769,-0.2829,-0.2831,-0.2793,-0.2808,-0.2811,-0.2825,-0.2817,-0.2816,-0.2821,-0.2819,-0.2815,-0.2815,-0.2815,-0.285,-0.2809,-0.281,-0.281,-0.2865,-0.2866,-0.2867,0,0,0,0,0,0,-0.277,-0.2777,-0.2828,-0.2802,-0.2808,-0.2811,-0.2827,-0.2826,-0.2831,-0.2824,-0.2821,-0.2829,-0.2814,-0.2814,-0.2827,-0.2849,-0.281,-0.2811,-0.2864,-0.2865,-0.2867,-0.2916,0,0,0,0,0,0,-0.2768,-0.2777,-0.2785,-0.2803,-0.281,-0.2855,-0.2828,-0.2827,-0.2839,-0.2836,-0.283,-0.2827,-0.2813,-0.2827,-0.2828,-0.2849,-0.2811,-0.2862,-0.2864,-0.2866,-0.2913,-0.2919,-0.2924,0,0,0,0,0,-0.2765,-0.2785,-0.2785,-0.2792,-0.2823,-0.2857,-0.2859,-0.2855,-0.2841,-0.2853,-0.2843,-0.2827,-0.2841,-0.2828,-0.283,-0.2851,-0.2861,-0.2864,-0.2866,-0.291,-0.2918,-0.2924,0,0,0,0,0,0,-0.2751,-0.2785,-0.2785,-0.2813,-0.2837,-0.2853,-0.2861,-0.2864,-0.2866,-0.2856,-0.2844,-0.2842,-0.2862,-0.2853,-0.2839,-0.2874,-0.2848,-0.2851,-0.2881,-0.2889,-0.2894,-0.2904,-0.2812,0,0,0,0,0,-0.2754,-0.2774,-0.2807,-0.2827,-0.284,-0.2852,-0.2863,-0.2866,-0.2874,-0.2874,-0.2871,-0.2867,-0.2875,-0.2878,-0.2881,-0.2903,-0.2897,-0.2918,-0.2924,-0.2928,-0.2938,-0.2939,-0.2946,-0.2876,-0.2876,-0.2876,0,0,-0.2752,-0.2773,-0.2783,-0.2825,-0.2836,-0.2871,-0.2855,-0.2878,-0.2904,-0.2874,-0.2896,-0.2889,-0.2886,-0.2907,-0.2915,-0.29,-0.2948,-0.2932,-0.2936,-0.2943,-0.2942,-0.2949,-0.2955,-0.2877,-0.2877,-0.2877,0,0,-0.2762,-0.278,-0.2802,-0.2832,-0.2864,-0.2879,-0.2892,-0.2917,-0.2923,-0.2949,-0.2933,-0.294,-0.2951,-0.2954,-0.2957,-0.3,-0.298,-0.3,-0.3036,-0.3037,-0.3042,-0.3047,-0.306,-0.3065,-0.3,-0.3001,-0.3001,0,-0.2756,-0.2794,-0.2813,-0.2851,-0.2876,-0.2889,-0.2926,-0.2945,-0.297,-0.298,-0.2961,-0.2981,-0.2977,-0.3006,-0.3019,-0.3014,-0.3011,-0.3008,-0.3044,-0.3048,-0.3052,-0.3064,-0.3069,-0.3003,-0.3003,-0.3003,-0.3002,0,-0.279,-0.2823,-0.2841,-0.2892,-0.2925,-0.2956,-0.2996,-0.3019,-0.3023,-0.3037,-0.3061,-0.3052,-0.306,-0.3064,-0.3056,-0.3088,-0.3077,-0.3051,-0.3025,-0.3062,-0.3072,-0.3077,-0.3007,-0.3006,-0.3005,-0.3005,0,0,-0.2758,-0.2846,-0.285,-0.2882,-0.2949,-0.2976,-0.303,-0.3077,-0.3108,-0.3116,-0.3151,-0.3158,-0.3141,-0.3143,-0.3131,-0.3137,-0.3167,-0.311,-0.3108,-0.312,-0.3177,-0.3166,-0.317,-0.3141,-0.3142,-0.3142,-0.3177,0,-0.2771,-0.2842,-0.2887,-0.2951,-0.299,-0.3035,-0.3088,-0.3132,-0.3157,-0.3197,-0.3191,-0.3212,-0.3175,-0.3176,-0.3178,-0.3174,-0.318,-0.3161,-0.3141,-0.3141,-0.3124,-0.3175,-0.2882,-0.2888,-0.3181,-0.3182,-0.3182,0,-0.2778,-0.283,-0.2894,-0.2985,-0.3006,-0.3048,-0.3123,-0.317,-0.3234,-0.3253,-0.3268,-0.3269,-0.3288,-0.3245,-0.3247,-0.3234,-0.3213,-0.3202,-0.3202,-0.3178,-0.3138,-0.2896,-0.2885,-0.319,-0.3189,-0.3189,-0.3188,0,-0.2728,-0.2826,-0.2873,-0.2906,-0.3015,-0.3048,-0.3098,-0.3174,-0.3211,-0.328,-0.3309,-0.3328,-0.3333,-0.3315,-0.3292,-0.3269,-0.3298,-0.3257,-0.3228,-0.3227,-0.2969,-0.2945,-0.3257,-0.3257,-0.3257,-0.3256,-0.3256,0,-0.2717,-0.2752,-0.2852,-0.288,-0.2933,-0.3021,-0.3076,-0.3134,-0.3218,-0.3269,-0.3316,-0.3352,-0.3347,-0.3361,-0.3329,-0.3305,-0.3318,-0.3254,-0.324,-0.2982,-0.2959,-0.3207,-0.32,-0.3258,-0.3257,-0.3257,-0.3257,0,-0.2648,-0.2718,-0.2772,-0.2881,-0.2907,-0.2938,-0.3041,-0.309,-0.318,-0.3252,-0.3273,-0.3364,-0.3398,-0.3401,-0.3394,-0.3347,-0.3329,-0.331,-0.3025,-0.2979,-0.325,-0.3246,-0.3289,-0.3288,-0.3288,-0.3288,-0.3288,0,-0.2619,-0.2638,-0.2735,-0.2758,-0.2802,-0.2865,-0.2915,-0.3034,-0.3095,-0.3251,-0.3284,-0.3366,-0.3415,-0.3428,-0.334,-0.3299,-0.335,-0.3023,-0.2933,-0.3274,-0.3256,-0.3251,-0.3248,-0.2604,-0.2598,-0.2593,-0.259,0,-0.2542,-0.2569,-0.2607,-0.2661,-0.2709,-0.2765,-0.2851,-0.2895,-0.3052,-0.3137,-0.3256,-0.3317,-0.3355,-0.3194,-0.3157,-0.3079,-0.3012,-0.2934,-0.3333,-0.2668,-0.2638,-0.2618,-0.2633,-0.2549,-0.2553,-0.2556,-0.2558,-0.256,-0.2451,-0.2453,-0.2494,-0.2533,-0.2586,-0.2629,-0.2634,-0.2754,-0.2828,-0.2909,-0.309,-0.3088,-0.3071,-0.2885,-0.2767,-0.2648,-0.2849,-0.2682,-0.2691,-0.2705,-0.2647,-0.2622,-0.2519,-0.2522,-0.2525,-0.2528,-0.2531,0,-0.2324,-0.2341,-0.2368,-0.24,-0.2393,-0.2478,-0.2558,-0.2522,-0.256,-0.2686,-0.2755,-0.2514,-0.2444,-0.2439,-0.2201,-0.2187,-0.2098,-0.2092,-0.1939,-0.1982,-0.202,-0.1922,-0.1603,-0.16,-0.1598,-0.1596,0,0,-0.2253,-0.2219,-0.2237,-0.2173,-0.2202,-0.2137,-0.2145,-0.2126,-0.2158,-0.2119,-0.2125,-0.2318,-0.239,-0.1989,-0.1897,-0.172,-0.183,-0.1638,-0.2378,-0.2241,-0.2276,-0.2356,-0.2255,0,0,0,0,0]},{"header":{"parameterUnit":"m.s-1","parameterCategory":2,"la1":30.2991,"la2":30.254,"lo1":-89.0895,"lo2":-89.0444,"dy":0.0017,"dx":0.0017,"nx":28,"ny":28,"refTime":"2023-11-01T03:00:00:Z","depth":"2","parameterNumber":3,"parameterNumberName":"V-component_of_CURRENTS"},"data":[0,0,0,0,0,0,0,0,0,0,0,0,0,0,0,0,0,0,0,0,0,0,0,0,0,0,0,0,0,0,0,0,0,0,0,0,0,0,0,0,0,0,0,0,0,0,0,0,0,0,0,0,0,0,0,0,0,0,-0.0323,-0.0322,0,-0.0224,-0.0223,-0.0221,-0.016,-0.016,-0.0159,-0.0159,-0.0019,-0.0016,-0.0013,0,0,0,0,0,0,0,0,0,0,0,0,0,-0.0401,-0.0401,-0.0323,-0.0322,-0.032,-0.0224,-0.0222,-0.0221,-0.016,-0.016,-0.0159,-0.0159,-0.002,-0.0016,-0.0012,0,0,0,0,0,0,0,0,0,0,0,0,0,-0.0341,-0.04,-0.0323,-0.0278,-0.0273,-0.0224,-0.0222,-0.0221,-0.016,-0.016,-0.0159,-0.0159,-0.0022,-0.0017,-0.0012,0.0011,0,0,0.0004,0.0006,0,0,0,0,0,0,0,0,-0.0345,-0.0339,-0.0286,-0.0281,-0.0276,-0.0204,-0.0199,-0.0141,-0.016,-0.0203,-0.0159,-0.0159,-0.0078,-0.0068,-0.0051,0.0017,0.0023,0.0004,0.0008,0.001,0.0011,0,0,0,0,0,0,0,-0.0349,-0.0342,-0.0283,-0.0285,-0.0279,-0.0244,-0.0235,-0.0188,-0.0143,-0.0199,-0.0195,-0.0184,-0.0074,-0.0056,-0.0047,0.0025,0.0004,0.0009,0.0012,0.0014,0.0125,0.0125,0,0,0,0,0,0,-0.0365,-0.0346,-0.0286,-0.028,-0.031,-0.0243,-0.0233,-0.0227,-0.0145,-0.0132,-0.0185,-0.0182,-0.0065,-0.0053,-0.0042,-0.001,0.001,0.0015,0.0018,0.0125,0.0125,0.0125,0,0,0,0,0,0,-0.0367,-0.0361,-0.029,-0.0311,-0.0299,-0.0242,-0.0236,-0.0226,-0.0207,-0.0134,-0.012,-0.0177,-0.0064,-0.0049,-0.0002,-0.0004,0.0017,0.0022,0.0125,0.0125,0.0125,0.0054,0,0,0,0,0,0,-0.037,-0.0363,-0.0366,-0.0312,-0.0299,-0.0268,-0.0236,-0.0224,-0.0201,-0.0196,-0.0123,-0.0109,-0.0063,-0.0011,0.0003,0.0004,0.0026,0.0125,0.0125,0.0125,0.0056,0.0051,0.0047,0,0,0,0,0,-0.0373,-0.0382,-0.0367,-0.036,-0.0305,-0.0268,-0.0258,-0.0215,-0.0202,-0.0197,-0.0147,-0.0111,-0.0003,-0.0006,0.0009,0.0011,0.0126,0.0125,0.0125,0.0058,0.0052,0.0047,0,0,0,0,0,0,-0.0417,-0.0374,-0.0358,-0.0352,-0.0316,-0.0258,-0.0252,-0.0222,-0.018,-0.0177,-0.011,-0.0093,-0.0054,-0.0013,-0.0018,0.0042,0.0066,0.0069,0.001,0.0005,0.0,-0.0012,0.003,0,0,0,0,0,-0.043,-0.0426,-0.0376,-0.0374,-0.036,-0.0308,-0.0289,-0.0261,-0.0215,-0.0196,-0.0143,-0.009,-0.0043,-0.0014,0.0032,0.0068,0.0112,0.0079,0.0074,0.007,0.007,0.013,0.0131,0.0124,0.0124,0.0124,0,0,-0.0446,-0.0423,-0.0421,-0.0383,-0.0354,-0.0341,-0.0296,-0.0274,-0.0259,-0.0188,-0.0154,-0.0105,-0.0039,-0.0001,0.002,0.0035,0.0094,0.0069,0.0065,0.0068,0.013,0.013,0.0131,0.0123,0.0123,0.0123,0,0,-0.0484,-0.0458,-0.0471,-0.0444,-0.0406,-0.0371,-0.0369,-0.0314,-0.0286,-0.0248,-0.0195,-0.0147,-0.0076,-0.0026,0.0007,0.0005,0.0063,0.0016,-0.0011,0.0047,0.0048,0.0049,0.01,0.0107,0.0018,0.0018,0.0018,0,-0.0507,-0.0513,-0.0468,-0.0469,-0.0454,-0.0391,-0.0397,-0.0356,-0.0292,-0.0267,-0.0249,-0.0139,-0.0087,-0.003,-0.0033,-0.0005,0.0034,0.0003,0.004,0.0043,0.0046,0.0098,0.0106,0.0014,0.0015,0.0015,0.0015,0,-0.0548,-0.0553,-0.0557,-0.0539,-0.0513,-0.0509,-0.0448,-0.042,-0.038,-0.0332,-0.027,-0.0193,-0.0127,-0.0105,-0.0068,-0.0022,0.0001,0.0022,0.0052,0.0042,0.0097,0.0107,0.0009,0.0011,0.0012,0.0013,0,0,-0.0605,-0.0593,-0.0595,-0.0606,-0.0552,-0.0542,-0.0509,-0.0462,-0.0443,-0.0369,-0.0334,-0.0248,-0.0199,-0.0158,-0.0099,-0.0046,0.0003,-0.0011,-0.0006,0.0034,0.0128,0.0184,0.0201,0.003,0.0031,0.0033,0.0156,0,-0.0656,-0.0692,-0.0657,-0.0682,-0.0695,-0.0624,-0.06,-0.0543,-0.0482,-0.0429,-0.033,-0.0278,-0.022,-0.0193,-0.0128,-0.0025,0.0027,-0.0033,0.0137,0.0142,0.0189,0.0214,0.0167,0.0277,0.0166,0.0168,0.0169,0,-0.0709,-0.0727,-0.0767,-0.0764,-0.0761,-0.0755,-0.0706,-0.0676,-0.0572,-0.0524,-0.0437,-0.0355,-0.0251,-0.0215,-0.0034,-0.0075,0.0014,0.0092,0.0099,0.0185,0.0218,0.0272,0.03,0.0186,0.0185,0.0184,0.0183,0,-0.0784,-0.0804,-0.0845,-0.0842,-0.0819,-0.0816,-0.0793,-0.0707,-0.0683,-0.0581,-0.0551,-0.0405,-0.0335,-0.0196,-0.0018,-0.0029,0.0177,0.0184,0.032,0.0325,0.0337,0.0341,0.0295,0.0294,0.0294,0.0294,0.0293,0,-0.0854,-0.0887,-0.0889,-0.0911,-0.0956,-0.0896,-0.0906,-0.0859,-0.0779,-0.0753,-0.061,-0.0555,-0.0329,-0.0176,-0.0028,0.0194,0.0177,0.0327,0.0368,0.0311,0.0311,0.0272,0.0268,0.0298,0.0297,0.0296,0.0296,0,-0.0932,-0.0931,-0.0984,-0.0988,-0.0997,-0.1024,-0.1003,-0.1002,-0.0912,-0.0871,-0.0843,-0.0654,-0.0441,-0.0206,0.0039,0.0183,0.0379,0.0451,0.0372,0.0402,0.0486,0.0476,0.0618,0.0621,0.0624,0.0626,0.0628,0,-0.0977,-0.1012,-0.1061,-0.1104,-0.1112,-0.1139,-0.1158,-0.1086,-0.1075,-0.0934,-0.0924,-0.0702,-0.0538,-0.0133,0.016,0.0461,0.045,0.0583,0.056,0.0497,0.0523,0.0509,0.0496,0.0542,0.0543,0.0544,0.0545,0,-0.106,-0.1072,-0.1119,-0.1216,-0.1261,-0.1307,-0.1318,-0.1329,-0.1228,-0.1173,-0.1054,-0.0905,-0.0476,-0.0133,0.0289,0.0453,0.054,0.0612,0.0581,0.047,0.0438,0.0458,0.0446,0.0553,0.0552,0.0551,0.0551,0.0551,-0.1115,-0.1177,-0.1242,-0.1331,-0.1392,-0.1456,-0.1498,-0.1476,-0.146,-0.1336,-0.1167,-0.0918,-0.0523,0.0059,0.0366,0.0649,0.0637,0.0699,0.0691,0.0684,0.0656,0.063,0.0775,0.0776,0.0776,0.0776,0.0777,0,-0.118,-0.1254,-0.1352,-0.1454,-0.1534,-0.1543,-0.1595,-0.1591,-0.1579,-0.1399,-0.1233,-0.0823,-0.0391,0.0009,0.0459,0.0743,0.0711,0.0787,0.0682,0.0674,0.0666,0.0632,0.0749,0.075,0.075,0.0751,0,0,-0.1218,-0.1327,-0.1386,-0.1547,-0.1622,-0.1709,-0.1744,-0.1711,-0.1595,-0.1439,-0.1239,-0.0898,-0.0401,-0.0086,0.0287,0.0523,0.0521,0.0547,0.054,0.0364,0.0353,0.0588,0.0525,0,0,0,0,0]}],[{"header":{"parameterUnit":"m.s-1","parameterCategory":2,"la1":30.2991,"la2":30.254,"lo1":-89.0895,"lo2":-89.0444,"dy":0.0017,"dx":0.0017,"nx":28,"ny":28,"refTime":"2023-11-01T03:00:00:Z","depth":"4","parameterNumber":2,"parameterNumberName":"U-component_of_CURRENTS"},"data":[0,0,0,0,0,0,0,0,0,0,0,0,0,0,0,0,0,0,0,0,0,0,0,0,0,0,0,0,0,0,0,0,0,0,0,0,0,0,0,0,0,0,0,0,0,0,0,0,0,0,0,0,0,0,0,0,0,0,-0.1902,-0.1902,0,-0.1961,-0.1962,-0.1962,-0.2002,-0.2003,-0.2003,-0.2004,-0.2073,-0.2074,-0.2076,0,0,0,0,0,0,0,0,0,0,0,0,0,-0.1808,-0.1809,-0.1901,-0.1902,-0.1903,-0.1961,-0.1962,-0.1962,-0.2002,-0.2003,-0.2003,-0.2004,-0.2072,-0.2074,-0.2076,0,0,0,0,0,0,0,0,0,0,0,0,0,-0.1854,-0.181,-0.1901,-0.1931,-0.1935,-0.1961,-0.1962,-0.1962,-0.2002,-0.2003,-0.2003,-0.2004,-0.2072,-0.2074,-0.2076,-0.2076,0,0,-0.2082,-0.2083,0,0,0,0,0,0,0,0,-0.1851,-0.1857,-0.1926,-0.1929,-0.1933,-0.1976,-0.1954,-0.2001,-0.2002,-0.1975,-0.2004,-0.2004,-0.2042,-0.2047,-0.2054,-0.2079,-0.2082,-0.2083,-0.2084,-0.2085,-0.2085,0,0,0,0,0,0,0,-0.1848,-0.1855,-0.1923,-0.1927,-0.1932,-0.1937,-0.1944,-0.1963,-0.2003,-0.1977,-0.1981,-0.199,-0.2044,-0.2051,-0.2056,-0.2083,-0.2083,-0.2084,-0.2086,-0.2087,-0.2202,-0.2203,0,0,0,0,0,0,-0.1845,-0.1852,-0.1921,-0.1925,-0.1895,-0.1938,-0.1947,-0.196,-0.2002,-0.201,-0.1989,-0.1992,-0.2048,-0.2053,-0.2058,-0.2148,-0.2085,-0.2087,-0.2088,-0.22,-0.2202,-0.2204,0,0,0,0,0,0,-0.1843,-0.1851,-0.1919,-0.1891,-0.19,-0.194,-0.1955,-0.1961,-0.2006,-0.2012,-0.2019,-0.2031,-0.2048,-0.2055,-0.2107,-0.2148,-0.2088,-0.209,-0.2198,-0.22,-0.2203,-0.2271,0,0,0,0,0,0,-0.184,-0.1849,-0.1873,-0.1891,-0.1902,-0.196,-0.1955,-0.1962,-0.2009,-0.2013,-0.2049,-0.2054,-0.2049,-0.2104,-0.2109,-0.2149,-0.2091,-0.2195,-0.2199,-0.2202,-0.2267,-0.2276,-0.2284,0,0,0,0,0,-0.1836,-0.1862,-0.1874,-0.1883,-0.1929,-0.1962,-0.1969,-0.1996,-0.2011,-0.2038,-0.2063,-0.2055,-0.2129,-0.2107,-0.2113,-0.2155,-0.2194,-0.2198,-0.2202,-0.2263,-0.2274,-0.2283,0,0,0,0,0,0,-0.1835,-0.1869,-0.1883,-0.1919,-0.1951,-0.197,-0.2,-0.2019,-0.206,-0.2073,-0.2078,-0.2085,-0.2145,-0.2141,-0.2118,-0.2198,-0.216,-0.2166,-0.2205,-0.2215,-0.2224,-0.2226,-0.2093,0,0,0,0,0,-0.1844,-0.1874,-0.1905,-0.1937,-0.1956,-0.1986,-0.2009,-0.203,-0.206,-0.208,-0.2107,-0.2133,-0.2159,-0.2182,-0.2201,-0.2247,-0.2235,-0.2278,-0.2286,-0.2294,-0.23,-0.2308,-0.2317,-0.2217,-0.2217,-0.2217,0,0,-0.1853,-0.1876,-0.1894,-0.1939,-0.1965,-0.2004,-0.2002,-0.2049,-0.2091,-0.208,-0.2154,-0.2168,-0.2178,-0.2228,-0.2255,-0.2236,-0.2319,-0.2299,-0.2305,-0.2307,-0.2313,-0.2322,-0.2331,-0.222,-0.2219,-0.2219,0,0,-0.1873,-0.1907,-0.1936,-0.197,-0.2019,-0.2039,-0.2062,-0.2107,-0.2141,-0.2201,-0.2205,-0.2244,-0.2291,-0.2304,-0.2314,-0.2383,-0.2362,-0.2396,-0.2444,-0.2452,-0.246,-0.2467,-0.2472,-0.2479,-0.2401,-0.2402,-0.2402,0,-0.1885,-0.1924,-0.1951,-0.199,-0.2026,-0.2061,-0.2105,-0.2143,-0.2203,-0.2233,-0.2238,-0.231,-0.2324,-0.2373,-0.2401,-0.2403,-0.2401,-0.2403,-0.2462,-0.2469,-0.2474,-0.2478,-0.2485,-0.2405,-0.2405,-0.2404,-0.2404,0,-0.1916,-0.1965,-0.1988,-0.2049,-0.2091,-0.2136,-0.2189,-0.2242,-0.2286,-0.2316,-0.2386,-0.2402,-0.244,-0.2457,-0.2454,-0.2509,-0.2494,-0.247,-0.2433,-0.2488,-0.2489,-0.2495,-0.2411,-0.2409,-0.2408,-0.2407,0,0,-0.189,-0.1991,-0.2002,-0.2046,-0.2129,-0.2162,-0.2242,-0.2311,-0.2365,-0.242,-0.2483,-0.2529,-0.2536,-0.2548,-0.255,-0.2567,-0.2613,-0.2546,-0.2545,-0.2546,-0.2635,-0.2477,-0.2468,-0.2599,-0.26,-0.2601,-0.2621,0,-0.1908,-0.1986,-0.2036,-0.2123,-0.2168,-0.2236,-0.2307,-0.2377,-0.2435,-0.2506,-0.2532,-0.2588,-0.2571,-0.2596,-0.2612,-0.2615,-0.263,-0.261,-0.2586,-0.2585,-0.2433,-0.2469,-0.2605,-0.2625,-0.2626,-0.2627,-0.2628,0,-0.1908,-0.1966,-0.2051,-0.2164,-0.2192,-0.2257,-0.2367,-0.2432,-0.253,-0.2576,-0.2627,-0.2651,-0.2699,-0.267,-0.2694,-0.2683,-0.2671,-0.2663,-0.2662,-0.2493,-0.2437,-0.2557,-0.2637,-0.2636,-0.2636,-0.2635,-0.2635,0,-0.1851,-0.1971,-0.2041,-0.2081,-0.2214,-0.2275,-0.2348,-0.2454,-0.2509,-0.2618,-0.2663,-0.2716,-0.2747,-0.2745,-0.2733,-0.2723,-0.2745,-0.2719,-0.2565,-0.2554,-0.266,-0.2652,-0.2731,-0.2731,-0.2731,-0.2731,-0.273,0,-0.1824,-0.1885,-0.2029,-0.2066,-0.2156,-0.226,-0.2355,-0.2435,-0.2544,-0.26,-0.2687,-0.2719,-0.2768,-0.2783,-0.2761,-0.2671,-0.2761,-0.2575,-0.2545,-0.269,-0.2685,-0.2664,-0.2656,-0.2731,-0.2731,-0.2731,-0.2731,0,-0.1739,-0.1837,-0.1925,-0.208,-0.213,-0.2191,-0.2341,-0.2399,-0.252,-0.2595,-0.263,-0.2732,-0.2747,-0.2771,-0.2776,-0.2682,-0.2631,-0.2579,-0.2745,-0.2724,-0.2433,-0.2429,-0.2403,-0.2398,-0.2393,-0.2389,-0.2386,0,-0.1697,-0.1736,-0.1904,-0.1954,-0.203,-0.214,-0.221,-0.236,-0.2413,-0.2571,-0.2585,-0.2665,-0.2709,-0.2583,-0.263,-0.2574,-0.2539,-0.2498,-0.2452,-0.2424,-0.2399,-0.2402,-0.2404,-0.2379,-0.2377,-0.2376,-0.2375,0,-0.1608,-0.1684,-0.1751,-0.1855,-0.1944,-0.2024,-0.2135,-0.2157,-0.2318,-0.246,-0.2469,-0.2469,-0.2488,-0.2474,-0.2449,-0.2407,-0.2514,-0.2449,-0.2458,-0.2414,-0.2394,-0.2374,-0.2381,-0.2359,-0.2361,-0.2363,-0.2364,0,-0.1533,-0.1556,-0.1652,-0.1724,-0.1826,-0.1861,-0.1948,-0.2013,-0.2081,-0.2267,-0.2266,-0.2357,-0.2469,-0.2388,-0.2364,-0.2311,-0.227,-0.2182,-0.2204,-0.2222,-0.2149,-0.2097,-0.1943,0,0,0,0,0,-0.1443,-0.1453,-0.1512,-0.1581,-0.1674,-0.1728,-0.1871,-0.1963,-0.2132,-0.2084,-0.2166,-0.2177,-0.2151,-0.2197,-0.21,-0.227,-0.2271,-0.2147,-0.218,-0.227,-0.2289,-0.2217,0,0,0,0,0,0,-0.1382,-0.1431,-0.1456,-0.1433,-0.1451,-0.1534,-0.1614,-0.1739,-0.1725,-0.1905,-0.19,-0.2037,-0.2039,-0.2168,-0.2051,-0.2063,-0.2038,-0.2215,-0.2209,-0.226,-0.2276,-0.2291,-0.2225,0,0,0,0,0]},{"header":{"parameterUnit":"m.s-1","parameterCategory":2,"la1":30.2991,"la2":30.254,"lo1":-89.0895,"lo2":-89.0444,"dy":0.0017,"dx":0.0017,"nx":28,"ny":28,"refTime":"2023-11-01T03:00:00:Z","depth":"4","parameterNumber":3,"parameterNumberName":"V-component_of_CURRENTS"},"data":[0,0,0,0,0,0,0,0,0,0,0,0,0,0,0,0,0,0,0,0,0,0,0,0,0,0,0,0,0,0,0,0,0,0,0,0,0,0,0,0,0,0,0,0,0,0,0,0,0,0,0,0,0,0,0,0,0,0,-0.0131,-0.0131,0,-0.0067,-0.0067,-0.0066,-0.0026,-0.0026,-0.0026,-0.0026,0.0081,0.0084,0.0087,0,0,0,0,0,0,0,0,0,0,0,0,0,-0.0171,-0.0171,-0.0131,-0.0131,-0.013,-0.0067,-0.0067,-0.0066,-0.0026,-0.0026,-0.0026,-0.0026,0.0081,0.0084,0.0087,0,0,0,0,0,0,0,0,0,0,0,0,0,-0.0135,-0.0171,-0.0132,-0.0103,-0.01,-0.0068,-0.0066,-0.0065,-0.0026,-0.0026,-0.0026,-0.0025,0.008,0.0083,0.0087,0.0107,0,0,0.01,0.0101,0,0,0,0,0,0,0,0,-0.0137,-0.0134,-0.0108,-0.0105,-0.0101,-0.0055,-0.0041,-0.0006,-0.0026,-0.0054,-0.0026,-0.0025,0.004,0.0047,0.0058,0.0112,0.0116,0.01,0.0102,0.0104,0.0105,0,0,0,0,0,0,0,-0.014,-0.0136,-0.0106,-0.0107,-0.0103,-0.0077,-0.0072,-0.0034,-0.0008,-0.0051,-0.0048,-0.0042,0.0042,0.0054,0.0061,0.0118,0.01,0.0104,0.0106,0.0108,0.0193,0.0193,0,0,0,0,0,0,-0.0151,-0.0139,-0.0108,-0.0104,-0.0119,-0.0076,-0.0071,-0.007,-0.001,-0.0001,-0.0042,-0.004,0.0047,0.0056,0.0065,0.0086,0.0104,0.0108,0.011,0.0193,0.0193,0.0193,0,0,0,0,0,0,-0.0153,-0.0149,-0.011,-0.012,-0.0113,-0.0076,-0.0075,-0.0069,-0.0058,-0.0003,0.0007,-0.0039,0.0048,0.0059,0.0094,0.009,0.011,0.0113,0.0194,0.0193,0.0193,0.0131,0,0,0,0,0,0,-0.0154,-0.015,-0.0156,-0.0121,-0.0113,-0.0098,-0.0075,-0.0068,-0.0055,-0.0052,0.0003,0.0013,0.0049,0.0087,0.0098,0.0096,0.0117,0.0194,0.0193,0.0193,0.0133,0.0129,0.0125,0,0,0,0,0,-0.0156,-0.0166,-0.0157,-0.0154,-0.0122,-0.0099,-0.0093,-0.0065,-0.0055,-0.0054,-0.0017,0.0011,0.0093,0.009,0.0103,0.0102,0.0194,0.0194,0.0193,0.0135,0.013,0.0125,0,0,0,0,0,0,-0.0185,-0.0161,-0.0152,-0.0154,-0.0132,-0.0092,-0.0091,-0.0071,-0.0042,-0.0041,0.0012,0.0025,0.0052,0.0086,0.0082,0.0126,0.0148,0.015,0.0099,0.0095,0.009,0.0079,0.012,0,0,0,0,0,-0.0196,-0.0199,-0.0168,-0.0171,-0.0163,-0.0129,-0.0118,-0.01,-0.0068,-0.0055,-0.0015,0.0026,0.0061,0.0083,0.0119,0.0145,0.0183,0.0153,0.0149,0.0145,0.0144,0.0195,0.0196,0.0192,0.0192,0.0192,0,0,-0.0209,-0.0197,-0.0199,-0.0178,-0.016,-0.0155,-0.0122,-0.0112,-0.0104,-0.0047,-0.0027,0.0012,0.0064,0.0091,0.0107,0.0119,0.0164,0.0144,0.0141,0.0142,0.0195,0.0196,0.0196,0.0192,0.0192,0.0192,0,0,-0.0239,-0.0227,-0.024,-0.0225,-0.0204,-0.0181,-0.0181,-0.0145,-0.0127,-0.0103,-0.0061,-0.0025,0.0028,0.0067,0.0093,0.0089,0.0138,0.0098,0.0073,0.0123,0.0123,0.0124,0.0166,0.0171,0.0099,0.0099,0.0099,0,-0.0257,-0.0269,-0.024,-0.0246,-0.0239,-0.0197,-0.0207,-0.018,-0.0137,-0.0121,-0.0107,-0.0024,0.0017,0.0061,0.0057,0.008,0.0113,0.0086,0.0117,0.0119,0.0121,0.0163,0.017,0.0096,0.0096,0.0097,0.0097,0,-0.0291,-0.0302,-0.0309,-0.0304,-0.029,-0.0293,-0.0254,-0.0238,-0.0211,-0.0178,-0.0134,-0.0073,-0.0022,-0.0004,0.0025,0.0062,0.0081,0.0102,0.0127,0.0117,0.0162,0.017,0.0092,0.0093,0.0094,0.0094,0,0,-0.0329,-0.0335,-0.0338,-0.0353,-0.0324,-0.0321,-0.0305,-0.0277,-0.0269,-0.0215,-0.0194,-0.0126,-0.0087,-0.0055,-0.0006,0.0039,0.0079,0.007,0.0075,0.0106,0.0184,0.0176,0.0184,0.0105,0.0106,0.0107,0.0207,0,-0.0368,-0.0406,-0.0388,-0.0419,-0.0434,-0.0391,-0.0381,-0.0346,-0.0306,-0.0272,-0.0194,-0.0158,-0.0107,-0.0087,-0.0032,0.0055,0.0099,0.005,0.0193,0.0198,0.0187,0.0193,0.011,0.0213,0.0215,0.0216,0.0217,0,-0.0404,-0.0428,-0.0471,-0.0486,-0.0488,-0.0494,-0.0473,-0.0458,-0.0389,-0.0357,-0.0291,-0.0227,-0.0144,-0.0111,0.0042,0.0009,0.0085,0.0153,0.0159,0.0179,0.0204,0.0228,0.0233,0.0231,0.023,0.0229,0.0228,0,-0.045,-0.0484,-0.0527,-0.053,-0.0534,-0.0544,-0.054,-0.0487,-0.0478,-0.0409,-0.039,-0.0273,-0.0218,-0.0099,0.005,0.0044,0.0214,0.0226,0.0293,0.0294,0.0299,0.0297,0.0321,0.0321,0.032,0.032,0.032,0,-0.0492,-0.0528,-0.056,-0.0583,-0.0636,-0.0606,-0.0633,-0.0607,-0.0561,-0.0549,-0.0442,-0.04,-0.0214,-0.0089,0.0038,0.0196,0.0211,0.0291,0.032,0.0269,0.0263,0.0304,0.0301,0.0324,0.0323,0.0322,0.0322,0,-0.053,-0.055,-0.0608,-0.0642,-0.0663,-0.0696,-0.0715,-0.0723,-0.067,-0.0648,-0.063,-0.0485,-0.032,-0.013,0.0076,0.0175,0.0327,0.0375,0.0306,0.033,0.0374,0.0367,0.0455,0.0455,0.0456,0.0456,0.0456,0,-0.0551,-0.0585,-0.0665,-0.0714,-0.0738,-0.0786,-0.0818,-0.0788,-0.0786,-0.0698,-0.0688,-0.0529,-0.0415,-0.0126,0.007,0.0322,0.035,0.0424,0.0398,0.0369,0.0389,0.0381,0.0373,0.0457,0.0457,0.0457,0.0457,0,-0.0589,-0.0621,-0.0672,-0.0781,-0.0842,-0.09,-0.0935,-0.094,-0.0886,-0.0844,-0.0731,-0.0564,-0.0375,-0.0138,0.0067,0.0242,0.0376,0.0429,0.0429,0.0406,0.0373,0.0391,0.0382,0.0459,0.0459,0.0459,0.0459,0,-0.0615,-0.0667,-0.0744,-0.0832,-0.092,-0.0981,-0.0996,-0.0978,-0.0962,-0.0848,-0.0813,-0.0593,-0.0452,-0.018,0.0005,0.0187,0.0222,0.0262,0.0271,0.0272,0.019,0.012,0.0155,0,0,0,0,0,-0.0632,-0.0696,-0.0791,-0.0885,-0.097,-0.1019,-0.1057,-0.1048,-0.0998,-0.0931,-0.0864,-0.0685,-0.0385,-0.0253,-0.0074,0.0002,0.0244,0.0214,0.0292,0.0468,0.0466,0.0401,0,0,0,0,0,0,-0.0646,-0.0738,-0.0792,-0.0906,-0.0976,-0.1062,-0.109,-0.106,-0.1008,-0.0932,-0.0775,-0.066,-0.0372,-0.0488,-0.0077,-0.0019,0.0049,0.0366,0.0369,0.047,0.0468,0.0466,0.0398,0,0,0,0,0]}]]